www.pogodaiklimat.ru
Время
(UTC), дата
22 30.07
23 30.07
00 31.07
01 31.07
02 31.07
03 31.07
04 31.07
05 31.07
06 31.07
07 31.07
08 31.07
09 31.07
10 31.07
11 31.07
12 31.07
13 31.07
14 31.07
15 31.07
16 31.07
17 31.07
18 31.07
19 31.07
20 31.07
21 31.07
22 31.07
23 31.07
00 1.08
01 1.08
02 1.08
03 1.08
04 1.08
05 1.08
06 1.08
07 1.08
08 1.08
09 1.08
10 1.08
11 1.08
12 1.08
13 1.08
14 1.08
15 1.08
16 1.08
17 1.08
18 1.08
19 1.08
20 1.08
21 1.08
22 1.08
23 1.08
00 2.08
01 2.08
02 2.08
03 2.08
04 2.08
05 2.08
06 2.08
07 2.08
08 2.08
09 2.08
10 2.08
11 2.08
12 2.08
13 2.08
14 2.08
15 2.08
16 2.08
17 2.08
18 2.08
19 2.08
20 2.08
21 2.08
22 2.08
23 2.08
00 3.08
01 3.08
02 3.08
03 3.08
04 3.08
05 3.08
06 3.08
07 3.08
08 3.08
09 3.08
10 3.08
11 3.08
12 3.08
13 3.08
14 3.08
15 3.08
16 3.08
17 3.08
18 3.08
19 3.08
20 3.08
21 3.08
22 3.08
23 3.08
00 4.08
01 4.08
02 4.08
03 4.08
04 4.08
05 4.08
06 4.08
07 4.08
08 4.08
09 4.08
10 4.08
11 4.08
12 4.08
13 4.08
14 4.08
15 4.08
16 4.08
17 4.08
18 4.08
19 4.08
20 4.08
21 4.08
22 4.08
23 4.08
00 5.08
01 5.08
02 5.08
03 5.08
04 5.08
05 5.08
06 5.08
07 5.08
08 5.08
09 5.08
10 5.08
11 5.08
12 5.08
13 5.08
14 5.08
15 5.08
16 5.08
17 5.08
18 5.08
19 5.08
20 5.08
21 5.08
22 5.08
23 5.08
00 6.08
01 6.08
02 6.08
03 6.08
04 6.08
05 6.08
07 6.08
08 6.08
10 6.08
11 6.08
12 6.08
14 6.08
15 6.08
16 6.08
17 6.08
18 6.08
20 6.08
19 6.08
Ветер
(напр.,м/с)
Видим. Явления Облачность Т
(С)
Тd
(С)
f
(%)
Тe
(С)
Тes
(С)
Комфортность P
(гПа)
Po
(гПа)
Тmin
(С)
Tmax
(С)
R
(мм)
R24
(мм)
S
(см)
СЗ 1-1
{3}
60 км ясно +20.8 +9.0 47 +23 +23 комфорт 1017.9 1005.7
С 3-5
{5}
60 км ясно +21.1 +9.6 48 +22 +22 комфорт 1018.2 1006.0
В 2-3
{7}
60 км ясно +19.8 +9.2 50 +21 +21 комфорт 1018.1 1005.9
В 2-3
{4}
60 км ясно +20.2 +8.8 48 +22 +22 комфорт 1018.1 1005.9
В 3-3
{3}
60 км ясно +18.8 +9.1 53 +20 +20 тепло 1018.2 1005.9
В 2-3
{4}
60 км ясно +17.1 +8.9 58 +17 +17 по сезону 1018.0 1005.7
СВ 5-6
{6}
60 км 1/0
[Ci fib]
+18.9 +8.5 51 +19 +19 тепло 1018.2 1005.9
В 3-4
{7}
50 км 1/0
[Ci fib]
+19.5 +8.3 48 +21 +21 комфорт 1018.2 1006.0
СВ 3 50 км 1/0
[Ci fib]
+21.5 +8.4 43 +23 +25 комфорт 1018.2 1006.0 +17.0 +29.6
СВ 4-6
{6}
50 км 1/0
[Ci fib]
+23.4 +8.3 38 +25 +28 комфорт 1018.2 1006.1
СВ 4-7
{7}
50 км 1/0
[Ci fib]
+25.0 +8.8 36 +26 +31 жарко 1018.1 1006.1
СВ 4 50 км 1/0
[Ci fib]
+27.6 +8.7 30 +27 +35 жарко 1017.6 1005.7
СВ 2-7
{7}
50 км 1/1 2000 м
[Cu hum Ci fib]
+29.8 +8.2 26 +29 +42 жарко 1017.4 1005.6
С 2-5
{5}
50 км 1/0
[Ci fib]
+30.7 +7.7 24 +30 +45 жарко 1016.7 1004.9
С 3-6
{7}
50 км 1/0
[Ci fib]
+32.5 +7.9 22 +31 +44 жарко 1016.1 1004.4
Ю 2-4
{7}
50 км 1/0
[Ac cuf Ci fib]
+32.6 +7.7 21 +31 +44 жарко 1015.4 1003.7
СВ 4-6
{6}
50 км 1/1 2000 м
[Cu med, cong Ac cuf]
+33.7 +7.8 20 +32 +39 жарко 1014.8 1003.2
В 3-5
{7}
60 км 1/0
[Ac cuf]
+34.7 +8.3 20 +33 +39 жарко 1014.5 1002.9
В 3-6
{6}
60 км 1/0
[Ac cuf]
+34.4 +8.5 20 +33 +36 жарко 1014.0 1002.4
ЮВ 3-5
{6}
60 км 1/0
[Ac cuf]
+34.8 +8.6 20 +33 +35 жарко 1013.6 1002.0
ЮВ 3 60 км 1/0
[Ac cuf]
+33.6 +8.9 22 +32 +33 жарко 1013.3 1001.7 +21.3 +35.3
В 3-4
{5}
60 км 1/0
[Ac cuf]
+31.8 +9.8 26 +31 +31 жарко 1013.5 1001.8
В 3-4
{5}
60 км 1/0
[Ac trans]
+26.4 +10.6 37 +27 +27 жарко 1014.2 1002.3
СВ 2-3
{5}
60 км 1/0
[Ac trans]
+24.1 +11.3 45 +26 +26 жарко 1014.4 1002.4
С 3-4
{4}
60 км 1/0
[Ac trans]
+25.1 +11.8 43 +27 +27 жарко 1014.3 1002.4
С 3-4
{4}
60 км ясно +24.1 +11.9 46 +26 +26 жарко 1014.6 1002.6
С 3-4
{5}
60 км 1/0
[Ci fib]
+23.5 +12.4 50 +25 +25 комфорт 1014.8 1002.8
С 4-5
{5}
60 км 1/0
[Ci fib]
+23.7 +12.2 48 +25 +25 комфорт 1014.3 1002.3
В 2-3
{5}
60 км 3/0
[Ci fib]
+23.1 +12.0 50 +26 +26 жарко 1014.1 1002.1
СВ 2-4
{5}
60 км 1/0
[Ci sp]
+20.9 +12.1 57 +24 +24 комфорт 1013.8 1001.7
СВ 4-5
{6}
60 км 5/0
[Ac trans Ci sp]
+21.4 +11.9 55 +24 +24 комфорт 1013.7 1001.6
С 3-4
{5}
50 км 4/0
[Ac cast Ci sp]
+22.0 +11.8 52 +24 +25 комфорт 1014.0 1001.9
СВ 3 45 км 4/1 1500 м
[Cu med, cong Ac cast Ci sp]
+24.0 +11.8 46 +26 +27 жарко 1013.9 1001.9 +20.5 +33.7
С 3-5
{5}
45 км 5/1 1500 м
[Cu med, cong Ac cast Ci ing]
+25.2 +11.7 43 +27 +30 жарко 1013.8 1001.9
З 2-3
{4}
45 км 8/1 1500 м
[Cu med, cong Ac cast Ci sp]
+27.2 +11.9 39 +28 +33 жарко 1014.6 1002.7
ЮЗ 1 45 км 8/1 1500 м
[Cu med, cong Ac cast Ci sp]
+30.2 +11.6 32 +31 +38 жарко 1014.4 1002.6
СЗ 5-7
{8}
45 км 8/1 1500 м
[Cu med, cong Ac cast Ci sp]
+30.7 +13.1 34 +32 +36 жарко 1014.2 1002.5
СЗ 4 45 км осадки на расстоянии 8/1 1350 м
[Cb cap Ac cast Ci sp]
+29.7 +13.6 37 +31 +37 жарко 1014.4 1002.6
СЗ 3 50 км в посл. час ливневой дождь 10/1 1200 м
[Cb cap Ac As]
+28.7 +14.3 41 +31 +34 жарко 1014.4 1002.6 0.0
З 4-5
{7}
60 км в посл. час ливневой дождь 9/1 1200 м
[Cb cap Ac As]
+29.1 +14.6 41 +31 +34 жарко 1014.2 1002.4
З 6-8
{8}
60 км в посл. час ливневой дождь 9/1 1200 м
[Cb cap Ac As]
+27.2 +16.4 52 +31 +32 душно 1014.2 1002.4
СЗ 2 55 км в посл. час ливневой дождь 9/1 1050 м
[Cb cap Ac cast Ci fib]
+28.8 +16.4 47 +32 +36 душно 1013.6 1001.8 0.0
ЮЗ 1-3
{4}
55 км осадки на расстоянии 3/1 1500 м
[Cb cap Ac cast Ci fib]
+31.2 +13.9 35 +33 +37 жарко 1013.1 1001.4
ЮВ 2-4
{4}
60 км осадки на расстоянии 1/1 2000 м
[Cb cap Ac cast Ci fib]
+31.5 +13.5 33 +33 +34 жарко 1012.3 1000.6
Ю 2 60 км {ливн. дождь} 3/1 2000 м
[Cb cap Ac cast Ci fib]
+30.9 +13.6 35 +32 +33 жарко 1012.2 1000.5 +23.9 +32.0
Ю 1-2
{3}
40 км 6/4 1500 м
[Cb cap Ac cuf Ci ing]
+27.4 +14.8 46 +30 +30 жарко 1012.6 1000.8
ЮВ 3-3
{4}
40 км 6/4 1500 м
[Cb cap Ac trans Ci sp]
+25.9 +15.6 53 +29 +29 душно 1012.6 1000.7
З 1 45 км в посл. час ливневой дождь 8/3 1500 м
[Cb cap Ac cast Ci sp]
+24.9 +16.1 58 +28 +28 жарко 1012.5 1000.6 0.0
СЗ 2-3
{3}
45 км 9/1 1500 м
[Cb cap Ac trans Cs]
+24.7 +15.7 57 +28 +28 душно 1012.4 1000.5
СВ 2-4
{4}
45 км 8/1 1500 м
[Cb cap Ac cast Ci sp]
+23.3 +15.5 62 +28 +28 душно 1012.3 1000.3
СВ 1 40 км осадки на расстоянии {ливн. дождь} 9/3 1500 м
[Cb cap Ac cast Ci sp]
+22.6 +15.9 66 +27 +27 душно 1012.3 1000.3
С 2-4
{4}
40 км осадки на расстоянии 9/1 1500 м
[Cb cap Ac As]
+22.4 +16.0 67 +27 +27 душно 1012.3 1000.3
СЗ 5-7
{7}
9000 м гроза, ливневой дождь туман 9/9 750 м
[Cb cap]
+21.2 +18.8 86 +26 +26 душно 1012.1 1000.1
С 2 25 км гроза, ливневой дождь 9/5 210 м
[Cb cap Ac cast]
+20.4 +19.5 95 +25 +25 комфорт 1012.8 1000.7 5
СЗ 4-5
{6}
17 км в посл. час гроза {ливн. дождь} 6/4 400 м
[Cb cap Ac cast Ci ing]
+20.2 +18.4 89 +24 +24 комфорт 1012.3 1000.2
СЗ 4-6
{7}
25 км 9/1 500 м
[Cu Sc Ac cast Cs]
+20.0 +18.4 91 +23 +23 комфорт 1013.0 1000.9
СЗ 4 28 км {гроза, ливн. дождь} 9/3 300 м
[Cb calv Ac As Cs]
+20.7 +17.5 82 +25 +25 комфорт 1013.2 1001.1 +19.8 +30.9 0.0 5.3
СЗ 7-10
{10}
40 км 10/9 600 м
[Cu Sc]
+21.0 +16.2 74 +24 +24 комфорт 1013.8 1001.7
С 2-4
{9}
50 км осадки на расстоянии 10/9 750 м
[Cb cap]
+21.9 +15.1 65 +25 +26 комфорт 1014.2 1002.1
СЗ 2 45 км в посл. час гроза {ливн. дождь} 10/9 450 м
[Cb calv]
+20.2 +15.7 75 +23 +24 комфорт 1014.6 1002.5 0.2
З 3-5
{9}
45 км в посл. час ливневой дождь 9/5 600 м
[Cu Sc Ac As]
+22.0 +14.6 63 +25 +28 комфорт 1015.0 1002.9
СЗ 2-5
{5}
50 км осадки на расстоянии 9/4 540 м
[Cu Sc Ac As Cs]
+23.3 +13.6 54 +27 +32 душно 1014.5 1002.5
З 2 60 км {гроза, ливн. дождь} 9/3 1440 м
[Cu med, cong Ac trans Cs]
+25.0 +12.9 47 +27 +33 жарко 1013.6 1001.7 0.0
СЗ 2-4
{6}
65 км 8/3 1440 м
[Cu med, cong Ac trans Ci fib]
+25.3 +13.0 46 +27 +33 жарко 1013.3 1001.4
З 2-4
{6}
65 км 8/3 1500 м
[Cu med, cong Ac trans Ci fib]
+26.6 +11.6 39 +28 +33 жарко 1012.6 1000.7
СЗ 5-8
{9}
70 км 6/4 1500 м
[Cu med, cong Ac trans Ci fib]
+25.9 +10.2 37 +27 +29 жарко 1012.7 1000.8
СЗ 5-9
{9}
70 км 8/3 1500 м
[Cu med, cong Ac trans Cs]
+26.5 +9.6 35 +27 +28 жарко 1012.6 1000.7
С 5-8
{8}
70 км 9/1 1500 м
[Cu med, cong Ac lent Cs]
+26.0 +9.5 35 +26 +27 жарко 1012.4 1000.5
С 4 70 км 9/1 1500 м
[Cu med, cong Ac trans Ci sp]
+25.0 +9.4 37 +26 +26 жарко 1012.5 1000.6 +20.0 +27.4
СЗ 3-5
{8}
60 км 9/1 1500 м
[Cu med, cong Ac cast Ci sp]
+23.6 +10.0 42 +25 +25 комфорт 1012.8 1000.8
С 3-5
{7}
50 км 9/1 1500 м
[Cu med, cong Ac cast Ci sp]
+21.3 +10.4 50 +23 +23 комфорт 1013.2 1001.1
СЗ 4 50 км 8/1 1500 м
[Cu med, cong Ac As Ci sp]
+21.3 +11.0 52 +23 +23 комфорт 1013.3 1001.2
С 4-6
{6}
50 км 8/0
[Ac As Ci sp]
+19.8 +11.8 60 +21 +21 комфорт 1013.6 1001.4
С 3-4
{7}
50 км 8/0
[Ac As Ci sp]
+17.4 +12.6 73 +17 +17 прохладно 1014.2 1001.9
СВ 3 50 км 8/0
[Ac As Ci sp]
+19.1 +12.7 66 +20 +20 тепло 1014.1 1001.9
С 3-5
{5}
50 км 9/0
[Ac As Ci sp]
+18.5 +12.7 69 +19 +19 тепло 1013.8 1001.6
С 3-4
{4}
50 км 9/0
[Ac As Ci sp]
+15.8 +12.5 81 +15 +15 по сезону 1013.7 1001.4
С 2 50 км 9/1 1500 м
[Cu hum Ac cast Ci sp]
+15.2 +12.7 85 +15 +15 по сезону 1013.2 1000.9
С 3-4
{4}
40 км 9/1 1500 м
[Cu hum Ac cast Cs]
+16.1 +12.7 80 +16 +16 по сезону 1013.2 1000.9
СВ 3-4
{4}
50 км осадки на расстоянии 9/1 1500 м
[Cu hum Ac cast Cs]
+17.3 +13.2 77 +17 +17 по сезону 1013.3 1001.1
С 3 50 км осадки на расстоянии 8/1 600 м
[Cu hum Ac cast Cc]
+17.9 +12.6 71 +18 +19 тепло 1013.2 1001.0 +15.0 +25.0 0.2
С 3-5
{5}
50 км осадки на расстоянии 9/1 600 м
[Cu hum Ac cast Cc]
+18.3 +12.8 70 +19 +21 тепло 1013.4 1001.2
С 5-6
{6}
50 км 9/1 750 м
[Cu hum Ac cast Ci fib]
+19.0 +12.8 67 +20 +22 тепло 1013.0 1000.8
СВ 4 50 км 9/1 840 м
[Cu hum Ac cast Cs]
+20.2 +12.4 61 +22 +26 комфорт 1012.8 1000.7
СВ 4-6
{6}
50 км 9/1 1140 м
[Cu med, cong Ac As]
+21.0 +10.6 51 +23 +26 комфорт 1012.5 1000.4
СВ 2
{7}
50 км 9/1 1140 м
[Cu med, cong Ac cast]
+21.0 +11.6 55 +24 +29 комфорт 1012.3 1000.2
СВ 3 50 км осадки на расстоянии 9/3 1200 м
[Cu Sc Ac cast]
+22.1 +11.3 50 +24 +28 комфорт 1011.7 999.7
С 3-5
{6}
50 км осадки на расстоянии 9/4 1350 м
[Cu Sc Ac As]
+22.4 +10.4 47 +24 +27 комфорт 1011.1 999.1
С 3-5
{7}
50 км 9/3 1320 м
[Cu Sc Ac As]
+23.2 +10.2 44 +25 +28 комфорт 1010.5 998.5
С 5 50 км осадки на расстоянии 9/4 1440 м
[Cu Sc Ac As]
+23.5 +9.6 41 +24 +25 комфорт 1010.0 998.0
СВ 5-8
{8}
50 км осадки на расстоянии 9/4 1440 м
[Cb cap Ac trans Ci sp]
+23.5 +9.7 42 +25 +25 комфорт 1010.2 998.2
В 3-5
{7}
40 км слаб. ливневой дождь 9/4 1440 м
[Cb cap Ac As]
+19.5 +13.5 68 +21 +22 комфорт 1010.4 998.3
С 3 40 км слаб. ливневой дождь 9/4 1440 м
[Cb cap Ac As]
+17.8 +15.2 85 +18 +18 холодно 1010.6 998.4 +17.8 +24.2 1
ЮЗ 3-4
{7}
35 км в посл. час ливневой дождь 9/6 1440 м
[Cb calv Ac As]
+16.6 +14.0 85 +16 +16 очень
холодно
1010.9 998.7
ЮЗ 1-2
{4}
45 км 9/4 1500 м
[Cu Sc Ac As]
+16.4 +14.3 87 +17 +17 холодно 1011.5 999.2
ЮВ 1-2
{7}
50 км {ливн. дождь} 9/1 1500 м
[Sc Ac As]
+15.9 +14.6 92 +17 +17 прохладно 1011.7 999.4 0.5
Ю 1-1
{3}
50 км 10/0
[Ac As]
+15.1 +14.1 94 +16 +16 холодно 1012.0 999.7
З 1-1
{2}
50 км 9/0
[Ac As Cs]
+14.9 +14.0 94 +15 +15 холодно 1012.2 999.9
С 4 55 км {ливн. дождь} 10/0
[Ac As]
+18.2 +9.5 57 +18 +18 тепло 1012.3 1000.1
С 4-5
{6}
60 км 9/0
[Ac As]
+16.6 +10.9 69 +16 +16 по сезону 1012.7 1000.4
С 4-6
{7}
65 км 9/0
[Ac trans Cs]
+17.9 +8.0 52 +18 +18 тепло 1012.8 1000.6
С 3-5
{7}
65 км 9/0
[Ac trans Cs]
+16.8 +9.1 60 +17 +17 по сезону 1013.2 1000.9
С 2-3
{5}
65 км 9/0
[Ac As Cs]
+16.4 +8.9 61 +17 +17 по сезону 1013.6 1001.3
С 3-4
{5}
65 км 8/1 2000 м
[Cu hum Ac trans Ci sp]
+16.3 +9.5 64 +16 +16 по сезону 1014.1 1001.8
С 3 65 км 6/1 2000 м
[Sc Ac trans Ci sp]
+17.4 +9.8 61 +17 +19 по сезону 1014.7 1002.4 +14.6 +18.8 1.9
С 3-5
{7}
65 км 5/1 2000 м
[Sc Ac lent Ci sp]
+18.4 +9.1 55 +19 +22 тепло 1015.2 1003.0
С 4-7
{7}
65 км 4/0
[Ac cast Ci sp]
+19.6 +8.6 49 +21 +25 комфорт 1015.6 1003.4
С 4 65 км 1/1 1440 м
[Cu hum Ac trans Ci fib]
+21.1 +7.7 42 +22 +29 комфорт 1015.5 1003.4
С 4-6
{7}
65 км 3/3 1500 м
[Cu med, cong]
+21.5 +8.5 43 +23 +29 комфорт 1015.4 1003.3
СЗ 4-7
{7}
65 км 4/4 1500 м
[Cu med, cong]
+21.7 +7.9 41 +23 +29 комфорт 1015.7 1003.6
З 5-8
{8}
65 км 8/6 1500 м
[Cu med, cong Ac trans]
+22.8 +7.6 38 +24 +26 комфорт 1015.8 1003.7
СЗ 5-7
{8}
65 км 8/3 1500 м
[Cu med, cong Ac trans]
+22.3 +7.9 40 +23 +26 комфорт 1016.1 1004.0
ЮЗ 4-6
{10}
65 км 8/4 1500 м
[Cu med, cong Ac As]
+24.2 +6.3 32 +24 +27 комфорт 1015.7 1003.7
З 4-6
{10}
65 км 6/4 2000 м
[Cu med, cong Ac trans]
+24.9 +6.6 31 +25 +27 комфорт 1015.6 1003.6
З 3-5
{7}
65 км 5/4 2000 м
[Cu med, cong Ac trans]
+23.9 +6.9 34 +24 +26 комфорт 1015.5 1003.5
З 2-3
{5}
65 км 4/3 2000 м
[Cu med, cong Ac trans Ci sp]
+23.7 +6.4 33 +24 +25 комфорт 1015.6 1003.6
СЗ 2 65 км 5/3 2000 м
[Cu med, cong Ac cast Ci fib]
+24.3 +6.5 32 +24 +25 комфорт 1016.0 1004.0 +17.3 +25.6
СЗ 2-6
{6}
65 км 3/0
[Ac cast Ci fib]
+21.4 +7.0 39 +22 +22 комфорт 1016.3 1004.2
СЗ 3-6
{6}
65 км 1/0
[Ac trans Ci fib]
+17.5 +8.4 55 +18 +18 холодно 1017.2 1004.9
В 1-3
{6}
60 км 3/0
[Ac trans Ci fib]
+16.2 +9.1 63 +17 +17 прохладно 1017.4 1005.0
З 2-3
{3}
60 км 4/0
[Ac trans Ci fib]
+15.9 +8.4 61 +16 +16 холодно 1017.7 1005.3
Ю 1-2
{3}
60 км 3/0
[Ac trans Ci fib]
+14.4 +8.5 68 +15 +15 холодно 1017.8 1005.4
З 1 60 км 6/0
[Ac trans Ci fib]
+12.9 +8.6 75 +13 +13 прохладно 1017.9 1005.4
ЮЗ 1-1
{1}
60 км 4/0
[Ci fib]
+12.3 +9.2 81 +12 +12 холодно 1018.0 1005.5
ЮЗ 1-2
{2}
50 км 3/0
[Ci fib]
+11.7 +9.2 85 +12 +12 прохладно 1018.4 1005.8
ЮЗ 1-2
{2}
50 км 1/0
[Ci fib]
+10.9 +9.1 89 +11 +11 холодно 1018.5 1005.9
З 1-1
{2}
50 км 3/0
[Ci fib]
+10.5 +8.8 89 +10 +10 холодно 1018.8 1006.2
Ю 1-1
{2}
50 км 1/0
[Ci fib]
+11.4 +9.1 86 +11 +12 холодно 1019.2 1006.6
ЮЗ 1 45 км 1/0
[Ci fib]
+15.9 +10.8 72 +17 +19 по сезону 1019.2 1006.8 +10.3 +24.3
Ю 2-4
{4}
40 км 1/0
[Ci fib]
+17.6 +11.7 68 +18 +23 тепло 1019.4 1007.1
ЮЗ 2-4
{4}
40 км 1/0
[Ci fib]
+20.2 +11.3 57 +23 +30 комфорт 1019.3 1007.1
Ю 2 45 км 1/0
[Ci fib]
+22.5 +11.2 49 +25 +36 комфорт 1019.0 1006.9
Ю 3-6
{6}
50 км 1/1 1500 м
[Cu hum Ci sp]
+24.2 +9.0 38 +25 +35 комфорт 1018.6 1006.6
Ю 4-7
{7}
50 км 1/1 1500 м
[Cu hum]
+25.4 +8.1 33 +26 +35 жарко 1018.4 1006.4
ЮЗ 2-4
{7}
50 км 3/3 1500 м
[Cu hum Ci fib]
+26.4 +7.7 31 +26 +37 жарко 1017.9 1005.9 0.0
В 3-7
{8}
50 км 3/3 2000 м
[Cu hum Ci fib]
+27.2 +8.0 30 +27 +35 жарко 1017.2 1005.3
СВ 3-4
{8}
50 км 3/3 2000 м
[Cu hum Ci fib]
+27.2 +8.1 30 +27 +33 жарко 1016.9 1005.0
ЮВ 1-3
{8}
50 км 1/1 2000 м
[Cu hum Ci fib]
+27.9 +8.0 29 +28 +35 жарко 1016.6 1004.7
Ю 3-6
{7}
50 км 1/1 2000 м
[Cu hum Ci fib]
+27.9 +7.1 27 +27 +30 жарко 1016.4 1004.5
ЮВ 2-5
{9}
55 км 1/1 2000 м
[Cu hum Ci fib]
+27.9 +6.6 26 +27 +29 жарко 1016.3 1004.4
ЮВ 3 55 км 1/0
[Ci fib]
+27.3 +6.6 27 +27 +27 жарко 1016.5 1004.6 +15.7 +29.0
В 4-5
{8}
60 км ясно +25.5 +6.7 30 +25 +25 комфорт 1016.9 1004.9
ЮВ 3-3
{7}
60 км 1/0
[Ac trans]
+22.5 +8.1 40 +24 +24 комфорт 1017.6 1005.5
Ю 3-3
{8}
60 км 1/0
[Ac trans]
+19.8 +8.2 47 +21 +21 комфорт 1018.2 1006.0
ЮЗ 1-2
{4}
60 км ясно +18.1 +8.8 55 +19 +19 по сезону 1018.5 1006.2
ЮЗ 1-2
{2}
60 км ясно +16.4 +9.0 62 +17 +17 прохладно 1019.0 1006.6
З 1-2
{8}
60 км 1/0
[Ci fib]
+15.1 +9.1 67 +16 +16 по сезону 1019.3 1006.9
В 1-1
{1}
60 км 4/0
[Ci fib]
+14.5 +9.5 72 +15 +15 по сезону 1019.4 1006.9
СВ 2-2
{2}
60 км 3/0
[Ci fib]
+13.5 +9.2 75 +13 +13 по сезону 1019.6 1007.1
СВ 2-2
{3}
60 км 1/0
[Ci fib]
+13.5 +9.4 76 +13 +13 по сезону 1019.7 1007.2
С 3-3
{4}
60 км 1/0
[Ci sp]
+15.9 +9.5 66 +15 +15 по сезону 1020.1 1007.7
СВ 2-3
{3}
55 км 1/0
[Ci fib]
+15.9 +9.7 67 +16 +16 тепло 1020.5 1008.1
СВ 2-4
{4}
45 км 1/0
[Ac trans Ci fib]
+19.6 +10.1 54 +21 +26 комфорт 1021.2 1008.9
СВ 3-4
{5}
45 км 1/0
[Ac trans Ci fib]
+22.9 +10.3 45 +25 +31 комфорт 1021.1 1009.0
В 3-6
{7}
55 км 1/0
[Ci sp]
+26.7 +10.2 36 +27 +39 жарко 1020.7 1008.7
СВ 3-5
{8}
55 км 1/0
[Ci sp]
+27.7 +9.8 33 +28 +40 жарко 1020.1 1008.2
В 4-8
{10}
65 км 1/0
[Ci fib]
+28.3 +9.6 31 +28 +38 жарко 1019.7 1007.8
В 4-7
{8}
70 км 1/1 2000 м
[Cu hum Ci fib]
+31.2 +10.4 28 +31 +37 жарко 1018.9 1007.1
ЮВ 4-7
{8}
70 км 1/1 2000 м
[Cu hum Ci fib]
+30.3 +9.8 28 +30 +34 жарко 1018.5 1006.7
В 4-6
{7}
>70 км 3/1 2000 м
[Cu hum Cs]
+30.8 +10.1 28 +31 +33 жарко 1018.3 1006.5
В 3-5
{6}
>70 км 1/0
[Ac cuf Ci fib]
+30.4 +10.3 29 +30 +32 жарко 1018.3 1006.5
В 3 >70 км 1/0
[Ac trans Ci fib]
+29.9 +10.3 30 +30 +30 жарко 1018.4 1006.6 +17.6 +31.4
В 2-2
{4}
60 км 3/0
[Ci fib]
+24.8 +11.2 42 +26 +26 жарко 1019.3 1007.3
В 3-4
{6}
60 км 3/0
[Ac trans Ci sp]
+28.7 +10.3 32 +29 +29 жарко 1018.7 1006.8
Местоположение метеостанции Франкфурт-на-Майне (Германия): широта 50.05 долгота 8.60 высота над уровнем моря 112 м.
В архиве по умолчанию представлена погода во Франкфурте-на-Майне за последнюю неделю. Архивные данные за месяц целиком и за предыдущие месяцы, начиная с января 2011 года, Вы можете получить, выбрав интересующий диапазон дат из раскрывающегося списка и нажав кнопку "Найти!".
*Определитесь, кто Вы:
Внимание! Время в таблицах - всемирное. Для получения местного времени необходимо прибавить поправку, которая равна 1 ч.
Смотрите также архив погоды в соседних городах и на ближайших метеорологических станциях:
Партнеры нашего сайта:      
Пояснения к столбцам:
  • Ветер - указаны скорость ветра в м/с - средняя за 10 мин, порывы в срок и между сроками (в фигурных скобках) и направление, откуда дует ветер: С - северный,
  • СВ - северо-восточный, В - восточный, ЮВ - юго-восточный, Ю - южный, ЮЗ - юго-западный, З - западный, СЗ - северо-западный.
  • Видимость - горизонтальная дальность видимости в метрах или километрах. При видимости от 1 до 10 км при отсутствии осадков обычно наблюдается дымка, при ухудшении видимости до 1 км и менее - туман. В сухую погоду видимость может ухудшаться дымом, пылью или мглою.
  • Явления - указаны атмосферные явления, наблюдавшиеся в срок или в последний час перед сроком; фигурными скобками обозначены явления, наблюдавшиеся между сроками (за 1-3 часа до срока); квадратными скобками обозначены град или гололедные отложения с указанием их диаметра в мм.
  • Облачность - указаны через наклонную черту общая и нижняя облачность в баллах и высота нижней границы облаков в метрах; квадратными скобками обозначены формы облаков: Ci - перистые, Cs - перисто-слоистые, Cc - перисто-кучевые, Ac - высококучевые, As - высокослоистые, Sc - слоисто-кучевые, Ns - слоисто-дождевые, Cu - кучевые, Cb - кучево-дождевые. Подробнее классификацию облаков см. в Атласе облаков (PDF).
  • T - Температура воздуха - температура, измеренная на высоте 2 м над землей.
  • Td - Температура точки росы - температура, при понижении до которой содержащийся в воздухе водяной пар достигнет насыщения.
  • f - Относительная влажность воздуха - влажноcть воздуха, измеренная на высоте 2 м над землей.
  • Te - Эффективная температура - температура, которую ощущает одетый по сезону человек в тени. Характеристика душности погоды. При расчете учитывается влияние влажности воздуха и скорости ветра на теплоощущения человека.
  • Tes - Эффективная температура на солнце - температура, которую ощущает человек, с поправкой на солнечный нагрев. Характеристика знойности погоды. Зависит от высоты солнца над горизонтом, облачности и скорости ветра. Ночью, в пасмурную погоду, а также при ветре 12 м/с и более поправка равна нулю.
  • P - Атмосферное давление - приведенное к уровню моря атмосферное давление.
  • Po - Атмосферное давление - измеренное на уровне метеостанции атмосферное давление.
  • Tmin - Минимальная температура - минимум температуры воздуха на высоте 2 м над землей.
  • Tmax - Максимальная температура - максимум температуры воздуха на высоте 2 м над землей.
  • R - Количество осадков - Количество выпавших осадков за период времени, мм. При наведении курсора мыши на число - период времени, за который выпало указанное количество осадков.
  • R24 - Количество осадков - Количество выпавших осадков за 24 часа, мм.
  • S - Снежный покров - Высота снежного покрова, см. При наведении курсора мыши на число - состояние снежного покрова и степень покрытия местности в баллах.